Location: Milton
(51.3500°N, 0.7500°E)
Time: 02:16:49
(UTC+00:00)

Daily predictions for brighter satellites

Satellite Brightness Start Highest point End
(mag) Time Altitude Azimuth Time Altitude Azimuth Time Altitude Azimuth
Cosmos 2228 Rocket 3.9 00:05:20 29° SE 00:07:04 42° E 00:11:19 10° NNE
Meteor 1-12 Rocket 4.4 00:02:24 10° N 00:08:18 77° ENE 00:11:47 26° SSE
Cosmos 2082 Rocket 3.2 00:07:01 24° SSE 00:09:24 34° ESE 00:14:31 10° NE
Helios 1A Rocket 4.2 00:07:43 17° ESE 00:10:03 32° ENE 00:13:31 10° N
Cosmos 1833 Rocket 2.7 00:08:10 27° SSW 00:11:24 84° WNW 00:17:04 10° NNE
BREEZE-M DEB (TANK) 3.7 00:13:11 34° SSE 00:13:11 34° SSE 00:17:47 10° ESE
Cosmos 724 4.4 00:12:03 30° S 00:14:51 59° ESE 00:20:35 10° NE
Cosmos 1908 3.7 00:12:04 10° NNW 00:15:27 41° W 00:16:07 36° WSW
PSLV R/B 4.1 00:20:09 10° N 00:24:38 55° WNW 00:26:44 28° SW
USA 267 3.2 00:18:37 10° ENE 00:25:10 71° SE 00:30:21 17° SW
Cosmos 1140 Rocket 3.6 00:22:27 28° SW 00:25:18 73° WNW 00:30:33 10° NNE
Cosmos 1441 Rocket 3.5 00:22:55 10° NNW 00:26:23 47° W 00:27:04 40° SW
NOSS 3-3 (A) 4.2 00:21:40 13° WSW 00:26:47 65° NW 00:33:30 10° NE
Cosmos 1707 3.7 00:26:20 26° WSW 00:27:36 34° WNW 00:30:59 10° N
Cosmos 1674 4.3 00:26:29 18° WSW 00:27:49 23° WNW 00:30:41 10° NNW
Cosmos 1455 4.2 00:26:15 10° NNE 00:28:54 20° ENE 00:31:18 11° ESE
Cosmos 1869 Rocket 4.2 00:25:41 10° NNW 00:29:47 41° W 00:31:14 30° SW
Iridium 51 4.5 00:28:15 38° S 00:29:52 84° W 00:34:21 10° N
Cosmos 1733 Rocket 3.0 00:25:40 10° N 00:30:01 81° E 00:31:54 33° SSE
Resurs 1-4 Rocket 4.4 00:29:01 10° NE 00:31:48 14° E 00:34:34 10° ESE
GP-B 3.3 00:28:55 10° N 00:33:16 60° W 00:35:02 33° SSW
Cosmos 1400 Rocket 2.8 00:32:16 39° S 00:33:37 73° E 00:37:37 10° NNE
H-2A R/B 2.6 00:32:33 10° N 00:36:53 53° WNW 00:38:59 28° SW
Cosmos 381 Rocket 4.5 00:31:00 10° NNW 00:37:28 86° WSW 00:41:55 21° SSE
Cosmos 2278 4.4 00:34:17 10° NNW 00:39:54 54° NE 00:45:29 10° SE
NOSS 3-4 (A) 3.9 00:34:48 10° NW 00:41:28 57° SW 00:47:10 19° SSE
NOSS 3-4 (C) 3.9 00:34:55 10° NW 00:41:34 58° SW 00:47:19 18° SSE
Cosmos 1346 Rocket 2.8 00:39:43 10° N 00:43:37 74° ENE 00:45:17 32° SSE
Cosmos 468 Rocket 4.0 00:41:08 10° NNW 00:46:29 85° WSW 00:49:48 23° SSE
Cosmos 2315 Rocket 4.4 00:40:56 10° NNW 00:46:59 51° W 00:50:26 25° SSW
Cosmos 2251 Rocket 3.6 00:44:26 28° SSW 00:47:17 76° WNW 00:52:36 10° NNE
Cosmos 407 Rocket 3.6 00:44:27 26° SW 00:47:25 71° WNW 00:52:41 10° NNE
Cosmos 1954 Rocket 4.3 00:48:42 28° S 00:51:24 59° ESE 00:56:38 10° NNE
Okean 2 4.4 00:49:49 23° SE 00:51:41 37° E 00:55:21 10° NNE
Cosmos 2333 Rocket 4.1 00:47:23 10° NNW 00:52:24 31° NE 00:57:26 10° ESE
Cosmos 1190 Rocket 4.0 00:51:10 29° SSW 00:53:55 80° ESE 00:59:14 10° NNE
Meteor 1-4 Rocket 4.0 00:53:08 18° ESE 00:54:03 21° E 00:56:23 10° NE
CZ-2C R/B 4.2 00:49:42 10° ESE 00:54:12 31° ENE 00:58:45 10° N
Cosmos 1763 Rocket 3.8 00:50:39 10° NNW 00:55:48 52° WSW 00:58:19 28° SSW
Cosmos 2285 Rocket 4.4 00:51:49 20° SW 00:56:11 59° WNW 01:02:29 10° NNE
Cosmos 2322 Rocket 3.5 00:52:10 10° NNW 00:57:30 40° NE 01:02:48 10° ESE
Cosmos 1300 3.1 00:55:06 10° NNW 00:58:31 43° W 00:59:22 36° SW
USA 234 3.4 00:56:33 10° SSE 01:02:50 48° SW 01:09:10 10° WNW
Cosmos 1953 2.6 00:59:11 10° N 01:03:05 60° ENE 01:05:20 23° SSE
SL-14 R/B 3.5 01:01:39 33° SW 01:03:08 57° WNW 01:06:56 10° N
SL-8 R/B 4.0 00:59:07 10° W 01:03:37 42° SSW 01:08:07 10° SE
Cosmos 1697 Rocket 4.1 00:59:48 10° NW 01:04:00 22° WSW 01:05:45 19° SW
Cosmos 1862 Rocket 3.5 01:04:13 31° SSW 01:06:11 73° WNW 01:10:32 10° N
Aureole 3 2.6 01:09:14 46° SW 01:09:55 65° WNW 01:12:55 10° N
Cosmos 1980 Rocket 2.9 01:06:12 10° NW 01:11:27 38° WSW 01:14:01 25° SSW
Nadezhda 1 Rocket 4.2 01:06:23 10° N 01:12:50 75° ENE 01:18:17 15° SSE
Cosmos 540 Rocket 3.8 01:09:16 10° NNW 01:14:14 48° WSW 01:16:52 26° SSW
ADEOS II 4.0 01:15:08 10° NE 01:19:12 22° E 01:23:14 10° SE
Cosmos 1607 4.5 01:14:39 14° WSW 01:20:20 60° NW 01:26:47 10° NE
MOZ.5/SAFIR/RUBIN 5/SL-8 3.8 01:18:21 20° SSE 01:21:40 88° W 01:26:25 10° NNW
Cosmos 2369 4.3 01:17:15 10° NW 01:22:32 40° WSW 01:25:30 23° SSW
COSMOS 2406 3.2 01:19:32 24° SSW 01:23:11 90° E 01:28:59 10° NNE
Lacrosse 5 rocket 1.1 01:19:40 10° WNW 01:23:49 74° SSW 01:27:46 10° SE
Cosmos 1356 Rocket 3.6 01:22:17 28° SW 01:24:12 58° WNW 01:28:18 10° N
IDEFIX/ARIANE 42P 3.4 01:19:29 10° NNE 01:24:32 45° E 01:28:28 16° SSE
Meteor 1-16 Rocket 4.5 01:24:34 10° NNW 01:30:06 56° W 01:33:51 21° SSW
Okean 1-7 3.0 01:30:04 26° SSW 01:32:24 78° W 01:36:46 10° N
Okean 3 4.0 01:34:53 24° SW 01:36:57 44° WNW 01:40:55 10° N
Cosmos 1238 4.5 01:34:15 10° N 01:38:18 83° W 01:40:12 24° S
ATLAS 2AS CENTAUR R/B 3.7 01:32:00 10° NW 01:38:47 50° NNE 01:45:16 10° ESE
Cosmos 1315 Rocket 2.7 01:39:37 24° S 01:41:51 82° E 01:45:47 10° NNE
SL-16 R/B 2.1 01:36:27 10° NNW 01:42:09 79° WSW 01:47:49 10° SSE
CZ-2C R/B 4.3 01:37:28 10° NNE 01:42:57 40° E 01:48:18 10° SSE
SJ 16-02 3.1 01:39:52 10° SSE 01:43:19 24° E 01:46:48 10° NE
Helios 1A Rocket 3.9 01:43:06 22° SW 01:44:25 27° W 01:47:46 10° NW
Cosmos 1850 Rocket 4.3 01:46:14 18° S 01:50:05 60° ESE 01:55:17 10° NNE
Orbus 7S? 4.3 01:48:33 10° W 01:51:14 32° NNW 01:53:48 10° NE
Cosmos 2082 Rocket 2.8 01:48:50 16° SW 01:53:19 52° NW 01:58:54 10° NNE
Cosmos 1709 Rocket 4.2 01:49:42 14° S 01:55:10 75° E 02:01:33 10° NNE
Cosmos 1741 Rocket 4.3 01:51:18 18° S 01:55:12 63° ESE 02:00:25 10° NNE
Cosmos 2219 Rocket 3.4 01:49:48 10° NNW 01:55:12 44° NE 02:00:36 10° ESE
Cosmos 1782 Rocket 3.5 01:51:42 10° NNW 01:56:06 76° W 01:59:39 15° S
Cosmos 1908 Rocket 4.1 01:52:35 10° NNW 01:56:46 41° W 01:59:24 20° SSW
SL-16 R/B 3.1 01:51:25 10° SE 01:57:33 60° ENE 02:03:43 10° NNW
CZ-2D R/B 2.5 01:52:28 10° NNE 01:57:56 63° ESE 02:02:42 13° S
Cosmos 2237 4.4 01:56:19 10° NW 02:01:53 52° WSW 02:07:24 10° S
Cosmos 1455 2.9 02:00:21 10° NNW 02:03:29 32° W 02:05:03 21° SW
Cosmos 2360 Rocket 2.3 01:58:30 10° NNW 02:04:14 82° ENE 02:09:55 10° SSE
Meteor 1-28 Rocket 4.0 02:01:01 10° SE 02:04:27 49° ENE 02:07:55 10° N
Cosmos 968 Rocket 3.9 02:02:10 15° S 02:06:20 56° ESE 02:11:22 10° NNE
Genesis I 4.4 02:05:37 15° S 02:07:52 28° ESE 02:10:58 10° ENE
USA 267 3.7 02:01:44 10° ENE 02:08:11 63° NNW 02:14:37 10° W
RESURS DK-1 2.9 02:04:22 10° NNW 02:08:24 60° NE 02:12:25 10° SE
MSX 3.9 02:05:09 10° NNE 02:10:56 87° ESE 02:16:00 14° SSW
Resurs 1-4 Rocket 2.1 02:07:07 10° NNE 02:12:25 84° ESE 02:17:04 14° SSW
Cosmos 841 Rocket 4.2 02:07:41 10° NW 02:12:26 36° WSW 02:16:19 14° SSW
H-2A R/B 3.5 02:12:49 10° N 02:16:48 64° WNW 02:19:49 16° SSW
FENGYUN 3A 4.0 02:16:28 10° NNE 02:21:50 63° ESE 02:27:08 10° S
COBE Rocket 4.2 02:18:42 10° N 02:23:28 57° WNW 02:27:39 14° SSW
Cosmos 2278 4.5 02:18:46 10° NW 02:23:48 33° WSW 02:28:37 11° SSW
Meteor 1-4 Rocket 3.7 02:25:17 14° WSW 02:26:58 21° WNW 02:29:22 10° NNW
SL-24 R/B 4.4 02:29:08 10° S 02:34:01 83° W 02:38:53 10° N
CZ-2C R/B 2.9 02:29:22 10° S 02:34:19 46° W 02:39:20 10° NNW
Cosmos 2242 Rocket 3.7 02:30:52 12° SSW 02:34:52 70° WNW 02:39:23 10° N
Cosmos 2333 Rocket 2.2 02:31:28 10° NW 02:37:09 67° WSW 02:42:50 10° SSE
Sich 1 Rocket 4.2 02:32:53 10° N 02:37:23 61° ENE 02:41:48 10° SSE
Cosmos 2098 Rocket 3.6 02:32:44 10° NNW 02:37:46 77° W 02:43:46 10° S
Timation 1 Rocket 4.4 02:32:20 13° SSW 02:37:49 89° WNW 02:43:50 10° NNE
Cosmos 1825 4.1 02:35:35 10° SE 02:38:22 23° E 02:41:09 10° NE
Cosmos 1953 4.3 02:36:18 10° NW 02:38:25 14° W 02:40:27 10° WSW
Cosmos 2151 Rocket 3.9 02:35:26 10° N 02:39:55 70° ENE 02:44:22 10° SSE
Cosmos 1814 Rocket 4.2 02:35:53 10° NNW 02:40:57 54° WSW 02:46:03 10° S
Cosmos 2322 Rocket 2.5 02:36:16 10° NW 02:41:39 46° WSW 02:47:00 10° S
Cosmos 2292 4.3 02:38:38 10° N 02:41:44 84° W 02:45:19 10° S
SL-27 R/B 2.0 02:40:26 13° SSW 02:42:53 72° ESE 02:45:42 10° NNE
Cosmos 1892 4.1 02:41:17 10° SSE 02:44:26 32° E 02:47:35 10° NNE
NPP 4.2 02:41:47 10° N 02:46:55 46° WNW 02:52:03 10° SW
Cosmos 1242 Rocket 3.0 02:44:54 13° SW 02:47:04 31° WNW 02:49:42 10° N
Meteor 2-5 Rocket 3.9 02:43:46 10° S 02:49:42 88° ESE 02:55:42 10° NNE
SL-4 R/B 4.0 02:48:03 10° S 02:51:13 20° SE 02:54:27 10° E
Okean 2 Rocket 3.1 02:48:24 10° N 02:52:49 84° ENE 02:57:14 10° S
Cosmos 1408 3.1 02:53:36 11° SW 02:56:08 32° WNW 02:58:53 10° N
Cosmos 2074 Rocket 4.2 02:50:47 10° S 02:57:00 78° E 03:03:14 10° NNE
Cosmos 1674 Rocket 4.0 02:54:03 10° S 02:58:27 66° E 03:02:52 10° NNE
Cosmos 1570 Rocket 4.0 02:53:30 10° NNW 02:58:50 84° WSW 03:04:10 10° SSE
ADEOS II 2.2 02:54:04 10° N 02:59:17 65° WNW 03:04:27 10° SSW
Lacrosse 5 rocket 2.8 02:59:04 10° W 03:01:31 16° SW 03:03:55 10° SSW
Cosmos 2208 Rocket 4.2 02:56:39 10° NNW 03:02:00 82° ENE 03:07:14 10° SSE
IDEFIX/ARIANE 42P 3.6 02:59:15 10° N 03:03:56 33° WNW 03:08:36 10° SW
Cosmos 1833 4.3 02:58:52 10° SSW 03:04:33 84° ESE 03:10:13 10° NNE
ALOS 2.3 03:00:01 10° NNE 03:04:40 88° W 03:09:17 10° SSW
Cosmos 405 Rocket 2.5 03:08:31 10° NNW 03:12:06 70° W 03:15:43 10° S
Cosmos 2184 Rocket 4.1 03:08:57 10° S 03:15:10 84° W 03:21:32 10° N
Cosmos 1378 Rocket 3.5 03:11:22 10° SSW 03:15:39 73° WNW 03:19:58 10° N
